Weather History for Fallon NAS, NV

Change the Weather History Date:

Thursday, February 21, 2013

  Actual Average Record
Temperature  
Mean Temperature 30 °F -  
Max Temperature 45 °F 53 °F 76 °F (1982)
Min Temperature 14 °F 24 °F 7 °F (1953)
Degree Days  
Heating Degree Days 36    
Moisture  
Dew Point 9 °F    
Average Humidity 43    
Maximum Humidity 62    
Minimum Humidity 25    
Precipitation  
Precipitation 0.00 in - - ()
Sea Level Pressure  
Sea Level Pressure 29.95 in    
Wind  
Wind Speed 2 mph (NW)    
Max Wind Speed 8 mph    
Max Gust Speed -    
Visibility 10 miles    
Events      
Averages and records for this station are not official NWS values.
T = Trace of Precipitation, MM = Missing Value Source: NWS Daily Summary

Daily Weather History Graph

Daily Weather History Graph

Search for Another Location

Airport:

Trip Planner

Search our weather history database for the weather conditions in past years. The results will help you decide how hot, cold, wet, or windy it might be!

Date:

Astronomy

Feb. 21, 2013 Rise Set
Actual Time 6:38 AM PST 5:38 PM PST
Civil Twilight 6:11 AM PST 6:06 PM PST
Nautical Twilight 5:40 AM PST 6:37 PM PST
Astronomical Twilight 5:09 AM PST 7:08 PM PST
Moon 1:58 PM PST (2/21) 3:45 AM PST (2/21)
Length of Visible Light 11h 54m
Length of Day
11h 00m
Waxing Gibbous, 84% of the Moon is Illuminated
Feb 21
Waxing Gibbous
Feb 25
Full
Mar 4
Last Quarter
Mar 11
New
Mar 19
First Quarter

Hourly Weather History & Observations

Time (PST) Temp. Windchill Dew Point Humidity Pressure Visibility Wind Dir Wind Speed Gust Speed Precip Events Conditions
12:56 AM 19.9 °F - 5.0 °F 52% 29.85 in 10.0 mi Calm Calm - N/A   Partly Cloudy
1:56 AM 24.1 °F - 9.0 °F 53% 29.86 in 10.0 mi Calm Calm - N/A   Overcast
2:56 AM 21.0 °F 14.6 °F 7.0 °F 55% 29.86 in 10.0 mi East 4.6 mph - N/A   Mostly Cloudy
3:56 AM 19.9 °F - 6.1 °F 55% 29.88 in 10.0 mi Calm Calm - N/A   Clear
4:56 AM 17.1 °F 11.7 °F 5.0 °F 59% 29.91 in 10.0 mi NW 3.5 mph - N/A   Partly Cloudy
5:56 AM 14.0 °F - 1.9 °F 59% 29.92 in 10.0 mi Calm Calm - N/A   Clear
6:20 AM 15.8 °F 10.2 °F 3.2 °F 58% 30.02 in 10.0 mi NW 3.5 mph - N/A   Partly Cloudy
6:56 AM 14.0 °F 6.5 °F 3.0 °F 62% 29.93 in 10.0 mi South 4.6 mph - N/A   Scattered Clouds
7:56 AM 23.0 °F 18.4 °F 10.9 °F 60% 29.96 in 10.0 mi SE 3.5 mph - N/A   Partly Cloudy
8:56 AM 32.0 °F 28.7 °F 12.0 °F 44% 29.99 in 10.0 mi Variable 3.5 mph - N/A   Scattered Clouds
9:56 AM 37.0 °F 31.6 °F 12.9 °F 37% 30.01 in 10.0 mi NNE 6.9 mph - N/A   Partly Cloudy
10:56 AM 39.9 °F 34.5 °F 14.0 °F 35% 30.01 in 10.0 mi North 8.1 mph - N/A   Scattered Clouds
11:56 AM 41.0 °F 38.0 °F 12.9 °F 32% 29.99 in 10.0 mi WNW 4.6 mph - N/A   Scattered Clouds
12:56 PM 43.0 °F 40.3 °F 14.0 °F 31% 29.96 in 10.0 mi Variable 4.6 mph - N/A   Scattered Clouds
1:56 PM 44.1 °F - 12.0 °F 27% 29.95 in 10.0 mi Calm Calm - N/A   Scattered Clouds
2:56 PM 44.1 °F 40.8 °F 12.0 °F 27% 29.95 in 10.0 mi Variable 5.8 mph - N/A   Scattered Clouds
3:56 PM 45.0 °F - 10.9 °F 25% 29.94 in 10.0 mi Calm Calm - N/A   Mostly Cloudy
4:56 PM 44.1 °F 39.5 °F 10.0 °F 25% 29.95 in 10.0 mi NNW 8.1 mph - N/A   Mostly Cloudy
5:56 PM 39.9 °F - 9.0 °F 28% 29.95 in 10.0 mi Calm Calm - N/A   Mostly Cloudy
6:56 PM 37.9 °F - 10.0 °F 32% 29.96 in 10.0 mi Calm Calm - N/A   Mostly Cloudy
7:56 PM 35.1 °F 32.2 °F 9.0 °F 34% 29.97 in 10.0 mi SSW 3.5 mph - N/A   Mostly Cloudy
8:56 PM 30.9 °F - 7.0 °F 37% 29.98 in 10.0 mi Calm Calm - N/A   Scattered Clouds
9:56 PM 28.0 °F - 8.1 °F 43% 29.99 in 10.0 mi Calm Calm - N/A   Partly Cloudy
10:56 PM 24.1 °F - 6.1 °F 46% 30.01 in 10.0 mi Calm Calm - N/A   Overcast
11:56 PM 27.0 °F 21.6 °F 9.0 °F 47% 30.01 in 10.0 mi South 4.6 mph - N/A   Overcast